Location: *
(50.3440°N, 18.6237°E)
Time: 13:59:46
(UTC+00:00)

SL-16 R/B - Pass Details

Date: 30 November 2020
Orbit: 841 x 849 km, 71.0° (Epoch: 26 January)

Event Time Altitude Azimuth Distance (km) Brightness Sun altitude
Rises 15:22:35 0° 181° (S) 3,384 5.8 -5.9°
Reaches altitude 10° 15:25:10 10° 173° (S) 2,453 4.9 -6.3°
Maximum altitude 15:30:17 37° 108° (ESE) 1,278 2.8 -7.0°
Drops below altitude 10° 15:35:27 10° 42° (NE) 2,468 4.1 -7.8°
Enters shadow 15:36:21 - 39° (NE) 2,790 4.3 -7.9°
